Terug naar catalogus

STARLINK-31472

ActiefCommunicatieVLEO
NORAD 59730·PAYLOAD·🇺🇸 United States

Gelanceerd May 13, 2024 vanaf Cape Canaveral Space Force Station

Loading…

Volgende Passages (komende 24 uur)

TLE

VersSource: CelesTrak SupGP

Epoch: Sep 14, 2026, 21:51 UTC

1 59730C 24090A   26257.91090278  .00054346  00000+0  15504-2 0  2572
2 59730  42.9978 192.7264 0009203 177.9741 190.0424 15.35146013    16

Volg STARLINK-31472 in realtime met AllMySat

Download on the App Store